(215527) = 2002 VT89

Discovered at Socorro on 2002-11-08 by LINEAR.

Orbit

Orbit type: Main Belt

Note: WebGL enabled browser required.

epoch2023-09-13.0
epoch JD2460200.5
perihelion date2021-05-28.77081
perihelion JD2459363.27081
argument of perihelion (°)208.87937
ascending node (°)232.39901
inclination (°)8.49540
eccentricity0.1514165
perihelion distance (AU)2.3230378
Tisserand w.r.t. Jupiter3.3
ΔV w.r.t. Earth (km/sec)9.9
semimajor axis (AU)2.7375477
mean anomaly (°)182.18208
mean daily motion (°/day)0.21760120
aphelion distance (AU)3.152
period (years)4.53
P-vector [x]0.15583229
P-vector [y]0.93228731
P-vector [z]0.32643019
Q-vector [x]-0.98082472
Q-vector [y]0.18519849
Q-vector [z]-0.06069917
absolute magnitude16.0
phase slope0.15
uncertainty0
referenceMPEC 2023-X132
observations used583
oppositions14
arc length (days)7564
first opposition used2002
last opposition used2023
residual rms (arc-secs)0.70
perturbers coarse indicatorM-v
perturbers precise indicator003Ek
first observation date used2002-10-04.0
last observation date used2023-06-20.0
computer nameMPCLINUX
JD of orbit computation2456847.786175
perihelion JD uncertainty (days)1.7045E-04
argument of perihelion uncertainty (°)5.4714E-05
ascending node uncertainty (°)4.4496E-05
inclination uncertainty (°)9.9659E-06
eccentricity uncertainty 7.7500E-08
perihelion distance uncertainty (AU)2.1713E-07
Minimum Orbit Intersection Distances (in AU)
for orbit epoch: 2460200.5, reference: E2023-XD2
Mercury2.01865
Venus1.60528
Earth1.34127
Mars0.78504
Jupiter2.12823
Saturn6.73387
Uranus15.6892
Neptune27.2227

Observations

591 total observations over interval: 2002 10 04.32968 – 2023 06 20.389586
These data are available for download (format description).

Date (UT) J2000 RA J2000 Dec Magn Location Ref
2002 10 04.32968 02 15 19.50 +19 46 12.8 19.4   704 – Lincoln Laboratory ETS, New Mexico MPS 83079
2002 10 04.34514 02 15 18.98 +19 46 06.9 19.7   704 – Lincoln Laboratory ETS, New Mexico MPS 83079
2002 10 04.37614 02 15 17.84 +19 45 57.5 19.8   704 – Lincoln Laboratory ETS, New Mexico MPS 83079
2002 10 04.39157 02 15 17.28 +19 45 54.1 19.7   704 – Lincoln Laboratory ETS, New Mexico MPS 83079
2002 10 08.30680 02 12 55.79 +19 24 52.9 18.8 R 699 – Lowell Observatory-LONEOS MPS 76160
2002 10 08.30768 02 12 55.73 +19 24 54.9 18.9 R 699 – Lowell Observatory-LONEOS MPS 76160
2002 10 08.32433 02 12 54.96 +19 24 46.9   699 – Lowell Observatory-LONEOS MPS 76160
2002 10 08.32523 02 12 54.98 +19 24 47.1   699 – Lowell Observatory-LONEOS MPS 76160
2002 10 08.34192 02 12 54.43 +19 24 41.3   699 – Lowell Observatory-LONEOS MPS 76160
2002 10 08.34280 02 12 54.35 +19 24 41.9   699 – Lowell Observatory-LONEOS MPS 76160
2002 10 08.35946 02 12 53.56 +19 24 36.4   699 – Lowell Observatory-LONEOS MPS 76160
2002 10 08.36036 02 12 53.42 +19 24 37.4   699 – Lowell Observatory-LONEOS MPS 76160
2002 10 12.27722 02 10 14.09 +19 00 39.0 19.7   704 – Lincoln Laboratory ETS, New Mexico MPS 83079
2002 10 12.29394 02 10 13.34 +19 00 33.5 19.1   704 – Lincoln Laboratory ETS, New Mexico MPS 83079
2002 10 12.31035 02 10 12.65 +19 00 27.3 19.5   704 – Lincoln Laboratory ETS, New Mexico MPS 83079
2002 10 12.32712 02 10 11.86 +19 00 21.2 19.6   704 – Lincoln Laboratory ETS, New Mexico MPS 83079
2002 10 31.49363 01 54 59.46 +16 31 16.1 19.7   608 – Haleakala-AMOS MPS 83079
2002 10 31.50439 01 54 58.91 +16 31 10.8 19.7   608 – Haleakala-AMOS MPS 83079
2002 10 31.51494 01 54 58.41 +16 31 05.2 19.9   608 – Haleakala-AMOS MPS 83079
2002 11 08.24103 01 49 03.47 +15 23 53.6 19.4   704 – Lincoln Laboratory ETS, New Mexico MPS 66499
2002 11 08.25857 01 49 02.69 +15 23 43.2 19.0   704 – Lincoln Laboratory ETS, New Mexico MPS 66499
2002 11 08.27596 01 49 01.87 +15 23 34.5 19.2   704 – Lincoln Laboratory ETS, New Mexico MPS 66499
2002 11 08.29331 01 49 01.09 +15 23 25.4 19.1   704 – Lincoln Laboratory ETS, New Mexico MPS 66499
2002 11 08.31087 01 49 00.27 +15 23 16.5 19.4   704 – Lincoln Laboratory ETS, New Mexico MPS 66499
2002 11 12.23072 01 46 19.90 +14 49 49.7 20.4   644 – Palomar Mountain/NEAT MPS 66499
2002 11 12.23888 01 46 19.68 +14 49 47.6 19.3   704 – Lincoln Laboratory ETS, New Mexico MPS 83079
2002 11 12.25175 01 46 19.03 +14 49 39.6 19.5   644 – Palomar Mountain/NEAT MPS 66499
2002 11 12.25609 01 46 18.85 +14 49 37.3 20.0   704 – Lincoln Laboratory ETS, New Mexico MPS 83079
2002 11 12.27303 01 46 18.17 +14 49 28.3 19.6   644 – Palomar Mountain/NEAT MPS 66499
2002 11 12.27334 01 46 18.17 +14 49 28.8 19.8   704 – Lincoln Laboratory ETS, New Mexico MPS 83079
2002 11 12.29070 01 46 17.38 +14 49 20.2 19.9   704 – Lincoln Laboratory ETS, New Mexico MPS 83079
2002 11 12.30803 01 46 16.67 +14 49 11.4 20.0   704 – Lincoln Laboratory ETS, New Mexico MPS 83079
2002 11 22.20253 01 40 57.45 +13 31 05.1 19.6   644 – Palomar Mountain/NEAT MPS 83079
2002 11 22.22366 01 40 56.87 +13 30 55.8 19.8   644 – Palomar Mountain/NEAT MPS 83079
2002 11 22.24461 01 40 56.31 +13 30 46.8 19.6   644 – Palomar Mountain/NEAT MPS 83079
2002 12 01.14546 01 38 15.95 +12 32 34.3 19.6   704 – Lincoln Laboratory ETS, New Mexico MPS 83079
2002 12 01.16046 01 38 15.77 +12 32 28.8 20.0   704 – Lincoln Laboratory ETS, New Mexico MPS 83079
2002 12 01.17534 01 38 15.46 +12 32 23.5 20.2   704 – Lincoln Laboratory ETS, New Mexico MPS 83079
2004 03 14.28991 11 08 08.87 -07 09 55.3 19.0   644 – Palomar Mountain/NEAT MPS 103134
2004 03 14.29115 11 08 08.80 -07 09 54.4 19.1   644 – Palomar Mountain/NEAT MPS 103134
2004 03 14.31075 11 08 07.81 -07 09 46.0 19.3   644 – Palomar Mountain/NEAT MPS 103134
2004 03 14.31200 11 08 07.76 -07 09 45.3 19.1   644 – Palomar Mountain/NEAT MPS 103134
2004 03 14.33582 11 08 06.60 -07 09 35.1 19.2   644 – Palomar Mountain/NEAT MPS 103134
2004 03 14.33705 11 08 06.52 -07 09 34.6 19.2   644 – Palomar Mountain/NEAT MPS 103134
2004 03 16.24237 11 06 36.80 -06 55 41.1 20.0   704 – Lincoln Laboratory ETS, New Mexico MPS 103134
2004 03 16.25419 11 06 36.26 -06 55 34.2 20.2   704 – Lincoln Laboratory ETS, New Mexico MPS 103134
2004 03 16.26527 11 06 35.65 -06 55 28.9 19.9   704 – Lincoln Laboratory ETS, New Mexico MPS 103134
2004 03 16.27742 11 06 35.10 -06 55 25.8 19.8   704 – Lincoln Laboratory ETS, New Mexico MPS 103134
2004 03 20.22937 11 03 35.32 -06 25 49.2 19.6   704 – Lincoln Laboratory ETS, New Mexico MPS 103134
2004 03 20.24096 11 03 34.77 -06 25 43.7 20.0   704 – Lincoln Laboratory ETS, New Mexico MPS 103134
2004 03 20.25337 11 03 34.23 -06 25 38.1 19.2   704 – Lincoln Laboratory ETS, New Mexico MPS 103134
2004 03 20.26472 11 03 33.72 -06 25 32.5 19.9   704 – Lincoln Laboratory ETS, New Mexico MPS 103134
2004 03 20.27656 11 03 33.14 -06 25 27.7 19.9   704 – Lincoln Laboratory ETS, New Mexico MPS 103134
2006 08 17.26390 22 06 24.56 +02 13 30.0 19.8 R 644 – Palomar Mountain/NEAT MPS 176014
2006 08 17.28447 22 06 23.50 +02 13 25.0 19.8 R 644 – Palomar Mountain/NEAT MPS 176014
2006 08 17.30537 22 06 22.50 +02 13 20.4 19.8 R 644 – Palomar Mountain/NEAT MPS 176014
2006 08 22.26566 22 02 20.80 +01 52 36.3 20.1 R 644 – Palomar Mountain/NEAT MPS 176014
2006 08 22.28613 22 02 19.73 +01 52 30.7 20.2 R 644 – Palomar Mountain/NEAT MPS 176014
2006 08 22.30655 22 02 18.72 +01 52 25.4 20.9 R 644 – Palomar Mountain/NEAT MPS 176014
2006 08 29.22762 21 56 38.72 +01 17 57.1 20.4 V 703 – Catalina Sky Survey MPS 176977
2006 08 29.23245 21 56 38.47 +01 17 57.1 21.1 V 703 – Catalina Sky Survey MPS 176977
2006 08 29.23730 21 56 38.25 +01 17 54.0 20.3 V 703 – Catalina Sky Survey MPS 176977
2006 08 29.24214 21 56 38.00 +01 17 54.0 20.0 V 703 – Catalina Sky Survey MPS 176977
2006 09 26.14583 21 38 50.17 -01 29 28.2 20.3 V 703 – Catalina Sky Survey MPS 180936
2006 09 26.15396 21 38 49.95 -01 29 29.8 20.1 V 703 – Catalina Sky Survey MPS 180936
2006 09 26.16207 21 38 49.81 -01 29 33.1 20.4 V 703 – Catalina Sky Survey MPS 180936
2006 09 26.17019 21 38 49.63 -01 29 35.3 20.4 V 703 – Catalina Sky Survey MPS 180936
2008 01 15.14407 06 41 35.41 +11 29 14.9 18.9   704 – Lincoln Laboratory ETS, New Mexico MPS 234177
2008 01 15.15678 06 41 34.72 +11 29 14.8 19.1   704 – Lincoln Laboratory ETS, New Mexico MPS 234177
2008 01 15.16949 06 41 34.05 +11 29 14.9 18.9   704 – Lincoln Laboratory ETS, New Mexico MPS 234177
2008 01 15.18266 06 41 33.32 +11 29 14.8 19.3   704 – Lincoln Laboratory ETS, New Mexico MPS 234177
2008 01 15.19537 06 41 32.68 +11 29 14.6 18.9   704 – Lincoln Laboratory ETS, New Mexico MPS 234177
2008 02 01.21512 06 30 12.27 +11 42 56.0 19.1   704 – Lincoln Laboratory ETS, New Mexico MPS 236176
2008 02 01.22777 06 30 11.95 +11 42 57.4 19.4   704 – Lincoln Laboratory ETS, New Mexico MPS 236176
2008 02 01.24071 06 30 11.52 +11 42 58.5 19.5   704 – Lincoln Laboratory ETS, New Mexico MPS 236176
2008 02 01.26558 06 30 10.78 +11 43 00.8 19.5   704 – Lincoln Laboratory ETS, New Mexico MPS 236176
2009 04 24.31977 14 04 21.61 -16 51 24.9 19.3 V G96 – Mt. Lemmon Survey MPS 284270
2009 04 24.32742 14 04 21.25 -16 51 21.8 19.9 V G96 – Mt. Lemmon Survey MPS 284270
2009 04 24.33998 14 04 20.67 -16 51 16.1 19.8 V G96 – Mt. Lemmon Survey MPS 284270
2009 04 24.34777 14 04 20.20 -16 51 13.2 20.0 V G96 – Mt. Lemmon Survey MPS 284270
2009 06 01.15399 13 41 08.98 -12 58 07.6 20.5 V G96 – Mt. Lemmon Survey MPS 287950
2009 06 01.16083 13 41 08.88 -12 58 06.3 20.6 V G96 – Mt. Lemmon Survey MPS 287950
2009 06 01.16778 13 41 08.73 -12 58 04.4 20.9 V G96 – Mt. Lemmon Survey MPS 287950
2009 06 01.17482 13 41 08.62 -12 58 02.6 20.6 V G96 – Mt. Lemmon Survey MPS 287950
2011 08 10.56492 01 41 03.566 +18 26 50.90 20.1 z F51 – Pan-STARRS 1, Haleakala MPS 388576
2011 08 10.57660 01 41 03.950 +18 26 53.64 20.1 z F51 – Pan-STARRS 1, Haleakala MPS 388576
2011 09 23.18106 01 43 40.49 +18 44 07.7 19.1 R H15 – ISON-NM Observatory, Mayhill MPS 392410
2011 09 23.19491 01 43 40.14 +18 44 05.7 19.1 R H15 – ISON-NM Observatory, Mayhill MPS 392410
2011 09 23.20886 01 43 39.73 +18 44 02.0 19.1 R H15 – ISON-NM Observatory, Mayhill MPS 392410
